Location: Unspecified
(0.0000°N, 0.0000°E)
Time: 22:51:48
(UTC+00:00)

FALCON 9 R/B - Visible Passes

Search period start: 30 October 2020 00:00
Search period end: 09 November 2020 00:00
Orbit: 488 x 62258 km, 25.4° (Epoch: 30 October)

Date Brightness Start Highest point End Pass type
(mag) Time Alt. Az. Time Alt. Az. Time Alt. Az.
31 Oct ? 02:21:21 52° NNW 02:40:07 57° N 12:18:05 10° WNW visible
31 Oct ? 22:38:26 19° ENE 22:38:26 19° ENE 13:17:33 10° WNW visible
02 Nov ? 01:43:26 10° ENE 08:05:48 72° N 14:26:06 10° SSE visible
03 Nov ? 02:37:18 10° ENE 09:15:23 75° ENE 10:31:17 10° ESE visible
04 Nov ? 04:24:47 10° E 05:09:41 12° E 05:43:08 10° E visible
05 Nov ? 04:03:59 24° WNW 05:47:17 52° NW 11:27:06 10° WNW visible
06 Nov ? 00:21:06 48° NE 00:21:06 48° NE 12:24:56 10° WNW visible
07 Nov ? 00:48:20 10° ENE 07:14:14 70° N 16:08:19 10° S visible
08 Nov ? 01:49:20 10° ENE 08:28:59 77° NNW 12:18:26 10° SE visible
